Regional Weather Roundup
Issued by NWS Little Rock, AR

Home | Current Version | Previous Version | Text Only | Print | Product List | Glossary On
Versions: 1 2 3 4 5 6 7 8 9 10 11 12 13 14 15 16 17 18 19 20 21 22 23 24 25 26 27 28 29 30 31
000
ASUS44 KLZK 172105
RWRLZK

WEATHER ROUNDUP FOR ARKANSAS
NATIONAL WEATHER SERVICE LITTLE ROCK AR
300 PM CST SUN DEC 17 2017

NOTE: "FAIR" INDICATES FEW OR NO CLOUDS BELOW 12,000 FEET WITH NO
SIGNIFICANT WEATHER AND/OR OBSTRUCTIONS TO VISIBILITY.

ARZ001-003-010-029-172200-
NORTHWEST ARKANSAS

CITY           SKY/WX    TMP DP  RH WIND       PRES   REMARKS
FAYETTEVILLE   CLOUDY    48  48 100 SW5       30.03S
FORT SMITH     CLOUDY    50  48  93 E3        30.05R FOG
HARRISON       CLOUDY    48  47  96 SE5       30.03R FOG
BENTONVILLE    CLOUDY    46  44  93 CALM      30.04S
ROGERS         CLOUDY    46  45  96 CALM      30.03S
SILOAM SPGS    LGT RAIN  46  45  96 S5        30.03S FOG
HIGHFILL       CLOUDY    47  46  97 SW3       30.02S
SPRINGDALE     CLOUDY    46  46 100 SW3       30.04S
$$

ARZ004-005-016-172200-
NORTH CENTRAL ARKANSAS

CITY           SKY/WX    TMP DP  RH WIND       PRES   REMARKS
BATESVILLE     CLOUDY    47  44  90 E3        30.08R
FLIPPIN        CLOUDY    49  46  90 CALM      30.05S
MTN HOME       CLOUDY    48  47  96 SE3       30.03S
$$

ARZ040-041-172200-
WEST CENTRAL ARKANSAS

CITY           SKY/WX    TMP DP  RH WIND       PRES   REMARKS
MENA           CLOUDY    52  50  93 CALM      30.04S
MOUNT IDA      CLOUDY    50  48  93 CALM      30.03S
$$

ARZ009-017-025-026-028-172200-
NORTHEAST ARKANSAS

CITY           SKY/WX    TMP DP  RH WIND       PRES   REMARKS
JONESBORO      CLOUDY    49  45  86 CALM      30.07F
NEWPORT        CLOUDY    47  43  86 SE3       30.08F
WALNUT RIDGE   CLOUDY    47  42  83 CALM      30.07F
BLYTHEVILLE    CLOUDY    47  45  93 SW3       30.09S
$$

ARZ022-023-033-042-044-172200-
CENTRAL ARKANSAS

CITY           SKY/WX    TMP DP  RH WIND       PRES   REMARKS
LITTLE ROCK    CLOUDY    46  45  96 S6        30.10R
N LITTLE ROCK    N/A     45  44  95 CALM      30.12R
JACKSONVILLE   CLOUDY    46  46  99 CALM      30.08R
SEARCY         CLOUDY    46  46 100 W3        30.09S
HOT SPRINGS    CLOUDY    48  47  96 CALM      30.08R
RUSSELLVILLE   CLOUDY    49  47  93 SE5       30.06R
CLINTON        CLOUDY    48  45  87 CALM      30.07S
$$

ARZ036-172200-
EAST ARKANSAS

CITY           SKY/WX    TMP DP  RH WIND       PRES   REMARKS
WEST MEMPHIS   CLOUDY    46  46 100 CALM      30.07F
$$

ARZ050-053-066-070-073-172200-
SOUTHWEST ARKANSAS

CITY           SKY/WX    TMP DP  RH WIND       PRES   REMARKS
ARKADELPHIA    CLOUDY    47  45  93 S3        30.10S
CAMDEN         CLOUDY    48  43  81 CALM      30.09F
TEXARKANA      CLOUDY    47  47 100 S3        30.08S FOG
EL DORADO      CLOUDY    47  47 100 CALM      30.10R
DE QUEEN       CLOUDY    48  47  96 S5        30.05S FOG
$$

ARZ056-057-069-172200-
SOUTHEAST ARKANSAS

CITY           SKY/WX    TMP DP  RH WIND       PRES   REMARKS
PINE BLUFF     CLOUDY    45  43  93 SW3       30.10R FOG
STUTTGART      CLOUDY    45  43  93 CALM      30.10R
MONTICELLO     CLOUDY    46  44  93 CALM      30.09S

$$






USA.gov is the U.S. government's official web portal to all federal, state and local government web resources and services.